STARLINK-1138, 45178

Orbit data source: Space-Track

STARLINK-1138, 45178 is a payload satellite owned by SpaceX/Seattle (US) in LEO that was launched on Mon, 17 Feb 2020 UTC via an FALCON 9 launch vehicle from the Air Force Eastern Test Range (AFETR). Payloads include a variety of satellites, spacecraft, and rockets equipped with specific instruments for various scientific and technological missions. These include communications satellites like Starlink; space stations such as the ISS; scientific satellites like the Hubble; Earth observation satellites from companies like Planet Labs, Umbra, and HawkEye 360; GPS; miniature CubeSats for education and research; and military/defense satellites.

Not visible in the next 10 days
STARLINK-1138 details
Identifier
45178, 2020-012A
Orbit
LEO
Last TLE update22 hours ago
Origin
Flag of USSpaceX/Seattle (US)
ManufacturerSpaceX/Seattle
MissionPartially operational Commercial Communications
Bus & MotorSTARLINK, Unknown motor
Mass260 kg wet, ~248 kg dry
Launch date (UTC)
2020-02-17 (5 years ago)
Launch vehicle
FALCON 9
Launch site
Air Force Eastern Test Range (AFETR)
Object type
Payload
Rocket body
Debris
Shape & HBRBox + 1 Pan, 8.86 m
Radar Cross Section13.562 m², Large (>1 m²)

Expand to show TLE details & history

TLE from 22 hours ago
0 STARLINK-1138
1 45178U 20012A   24360.58335648  .00246613  00000-0  10736-2 0  9998
2 45178  53.0478 201.6991 0002171 247.3269 267.2477 15.83571444  5963
Epoch: 2024-12-25T14:00Z
Definitive object data (Epoch: 2024-12-25T14:00:01.999Z)
Latitude20.12911°
Longitude61.20372°
Altitude320.9 km
Speed7.719 km/s
True Right ascension00h 23m 08s
True Declination20° 00' 40"
Sunlit
Object was in daylight at TLE epoch
Visualization TLE readout
Latitude-33.30849°
Longitude-136.92728°
Altitude328.942 km
Speed7.711 km/s
Apparent Right ascension10h 43m 40s
Apparent Declination-84° 41' 55"
Sunlit
Object is in daylight
Visualization observer readout
Local Sidereal Time11:14:33
Azimuth180.865° SSW
Elevation-34.659°
Doppler factor1
Orbital elements
Apogee altitude322.085 km
Perigee altitude319.177 km
Semi-major axis6,698.768 km
Eccentricity0.0002171
Inclination53.0478°
RAAN201.6991°
Arg. of periapsis247.3269°
True anomaly267.22285°
Mean anomaly267.2477°
Eccentric anomaly267.23528°
Mean motion3.95868 °/min
BSTAR0.0010736
Orbital period90.94 mins
Loading maneuver chart data...

STARLINK-1138 Visibility forecast

Observer location: undefined°, undefined

STARLINK-1138 is not visible in the next 10 days
Span
Click to sort rows by Start time (UTC) header in descending order
Start Az.
Max El. time (UTC)
Max El. Az.
Max El.
End time (UTC)
End Az.
|